Weather History for Ozark, AL

Change the Weather History Date:

Monday, May 27, 2013

  Actual Average Record
Temperature  
Mean Temperature 77 °F -  
Max Temperature 91 °F 83 °F 95 °F (2000)
Min Temperature 64 °F 63 °F 57 °F (2005)
Cooling Degree Days 12    
Growing Degree Days 27 (Base 50)    
Moisture  
Dew Point 63 °F    
Average Humidity 78    
Maximum Humidity 100    
Minimum Humidity 29    
Precipitation  
Precipitation 0.00 in - - ()
Sea Level Pressure  
Sea Level Pressure 30.16 in    
Wind  
Wind Speed 3 mph (ESE)    
Max Wind Speed 7 mph    
Max Gust Speed -    
Visibility 6 miles    
Events Fog    
Averages and records for this station are not official NWS values.
T = Trace of Precipitation, MM = Missing Value Source: NWS Daily Summary

Daily Weather History Graph

Daily Weather History Graph

Search for Another Location

Airport:

Trip Planner

Search our weather history database for the weather conditions in past years. The results will help you decide how hot, cold, wet, or windy it might be!

Date:

Astronomy

May. 27, 2013 Rise Set
Actual Time 5:40 AM CDT 7:39 PM CDT
Civil Twilight 5:13 AM CDT 8:07 PM CDT
Nautical Twilight 4:40 AM CDT 8:40 PM CDT
Astronomical Twilight 4:05 AM CDT 9:15 PM CDT
Moon 10:22 PM CDT 8:14 AM CDT
Length of Visible Light 14h 53m
Length of Day
13h 58m
Waning Gibbous, 91% of the Moon is Illuminated
May 27
Waning Gibbous
May 31
Last Quarter
Jun 8
New
Jun 16
First Quarter
Jun 23
Full

Hourly Weather History & Observations

Time (CDT) Temp. Heat Index Dew Point Humidity Pressure Visibility Wind Dir Wind Speed Gust Speed Precip Events Conditions
12:58 AM 67.8 °F - 66.2 °F 95% 30.17 in 10.0 mi SW 4.6 mph - N/A   Clear
1:58 AM 67.8 °F - 66.7 °F 96% 30.16 in 10.0 mi SSE 2.3 mph - N/A   Clear
2:53 AM 66.2 °F - 66.2 °F 100% 30.15 in 1.2 mi Calm Calm - N/A   Clear
2:58 AM 66.6 °F - 65.8 °F 98% 30.15 in 0.5 mi Calm Calm - N/A Fog Fog
3:03 AM 66.2 °F - 66.2 °F 100% 30.15 in 0.2 mi WSW 2.3 mph - N/A Fog Fog
3:13 AM 66.2 °F - 66.2 °F 100% 30.15 in 1.0 mi WSW 2.3 mph - N/A   Clear
3:18 AM 66.2 °F - 66.2 °F 100% 30.15 in 6.0 mi West 2.3 mph - N/A   Clear
3:28 AM 66.2 °F - 66.2 °F 100% 30.15 in 1.0 mi West 2.3 mph - N/A   Clear
3:33 AM 66.2 °F - 66.2 °F 100% 30.15 in 0.8 mi WNW 2.3 mph - N/A   Clear
3:38 AM 66.2 °F - 66.2 °F 100% 30.15 in 1.2 mi NW 2.3 mph - N/A   Clear
3:43 AM 66.2 °F - 66.2 °F 100% 30.15 in 6.0 mi NW 3.5 mph - N/A   Clear
3:58 AM 65.8 °F - 65.5 °F 99% 30.16 in 4.0 mi NW 4.6 mph - N/A   Clear
4:58 AM 67.8 °F - 67.3 °F 98% 30.15 in 10.0 mi NNE 3.5 mph - N/A   Clear
5:39 AM 64.4 °F - 64.4 °F 100% 30.17 in 9.0 mi Calm Calm - N/A   Scattered Clouds
5:49 AM 64.4 °F - 64.4 °F 100% 30.17 in 6.0 mi Calm Calm - N/A   Mostly Cloudy
5:58 AM 64.8 °F - 64.4 °F 99% 30.18 in 8.0 mi Calm Calm - N/A   Mostly Cloudy
6:03 AM 64.4 °F - 64.4 °F 100% 30.18 in 10.0 mi NE 1.2 mph - N/A   Scattered Clouds
6:28 AM 64.4 °F - 64.4 °F 100% 30.19 in 1.0 mi ENE 3.5 mph - N/A   Partly Cloudy
6:33 AM 64.4 °F - 64.4 °F 100% 30.19 in 0.5 mi NE 3.5 mph - N/A Fog Fog
6:38 AM 64.4 °F - 64.4 °F 100% 30.19 in 0.2 mi NE 3.5 mph - N/A Fog Fog
6:48 AM 66.2 °F - 66.2 °F 100% 30.19 in 0.5 mi NE 3.5 mph - N/A Fog Fog
6:53 AM 66.2 °F - 66.2 °F 100% 30.19 in 1.0 mi NE 3.5 mph - N/A   Overcast
6:58 AM 66.2 °F - 66.2 °F 100% 30.20 in 1.2 mi NE 3.5 mph - N/A   Overcast
7:08 AM 66.2 °F - 66.2 °F 100% 30.20 in 1.8 mi NE 3.5 mph - N/A   Overcast
7:13 AM 66.2 °F - 66.2 °F 100% 30.20 in 3.0 mi NE 2.3 mph - N/A   Overcast
7:58 AM 70.5 °F - 68.7 °F 94% 30.21 in 10.0 mi Variable 1.2 mph - N/A   Clear
8:58 AM 79.7 °F - 62.1 °F 55% 30.21 in 10.0 mi Variable 2.3 mph - N/A   Partly Cloudy
9:58 AM 82.2 °F 81.9 °F 57.2 °F 42% 30.21 in 10.0 mi SE 6.9 mph - N/A   Overcast
10:58 AM 84.7 °F 83.6 °F 56.1 °F 37% 30.20 in 10.0 mi Calm Calm - N/A   Overcast
11:58 AM 86.0 °F 84.9 °F 56.7 °F 37% 30.18 in 10.0 mi Variable 6.9 mph - N/A   Scattered Clouds
12:58 PM 87.6 °F 86.1 °F 55.9 °F 34% 30.17 in 10.0 mi Variable 3.5 mph - N/A   Mostly Cloudy
1:58 PM 88.7 °F - 52.2 °F 29% 30.15 in 10.0 mi SE 5.8 mph - N/A   Partly Cloudy
2:58 PM 90.7 °F 88.5 °F 54.5 °F 29% 30.12 in 10.0 mi Variable 3.5 mph - N/A   Clear
3:58 PM 90.1 °F 88.1 °F 54.7 °F 30% 30.10 in 10.0 mi SSE 6.9 mph - N/A   Clear
4:58 PM 90.3 °F 88.1 °F 54.3 °F 29% 30.09 in 10.0 mi SSE 6.9 mph - N/A   Clear
5:58 PM 89.2 °F - 52.9 °F 29% 30.08 in 10.0 mi SE 5.8 mph - N/A   Clear
6:58 PM 85.1 °F 83.9 °F 55.8 °F 37% 30.08 in 10.0 mi SSE 3.5 mph - N/A   Partly Cloudy
7:58 PM 81.9 °F 81.7 °F 57.2 °F 43% 30.08 in 10.0 mi ESE 3.5 mph - N/A   Clear
8:58 PM 76.8 °F - 61.5 °F 59% 30.10 in 10.0 mi SSW 6.9 mph - N/A   Clear
9:58 PM 73.6 °F - 61.3 °F 65% 30.12 in 10.0 mi SSW 5.8 mph - N/A   Clear
10:58 PM 72.3 °F - 61.0 °F 67% 30.14 in 10.0 mi SW 3.5 mph - N/A   Clear
11:58 PM 70.3 °F - 60.4 °F 71% 30.14 in 10.0 mi Calm Calm - N/A   Clear